Home   Weather   Canada   Halifax   Past weeks
Flag for Canada

Past Weather in Halifax, Nova Scotia, Canada — Yesterday and Last 2 Weeks

Currently: 66 °F. Partly sunny. (Weather station: Halifax International Airport, Canada). See more current weather

Past Weather in Halifax — Graph

°F

Halifax Temperature Yesterday

Maximum temperature yesterday: 66 °F (at 3:15 pm)
Minimum temperature yesterday: 57 °F (at 5:00 am)
Average temperature yesterday: 62 °F

High & Low Weather Summary for the Past Weeks

 TemperatureHumidityPressure
High82 °F (Jul 18, 3:00 pm)100% (Jul 16, 9:46 pm)30.12 "Hg (Jul 16, 9:46 pm)
Low54 °F (Jul 29, 6:00 am)38% (Jul 29, 2:00 pm)29.48 "Hg (Jul 30, 5:19 pm)
Average66 °F89%29.91 "Hg
* Reported Jul 16 12:00 pm — Jul 31 12:00 pm, Halifax. Weather by CustomWeather, © 2021

Note: Actual official high and low records may vary slightly from our data, if they occured in-between our weather recording intervals... More about our weather records

Halifax Weather History for the Previous 24 Hours

Scroll right to see more
 ConditionsComfort  
Time TempWeatherWind HumidityBarometerVisibility
12:00 pm
Sat, Jul 31
64 °FPartly sunny.18 mph68%29.70 "Hg15 mi
11:00 am63 °FScattered clouds.14 mph73%29.69 "Hg15 mi
10:00 am61 °FScattered clouds.16 mph77%29.68 "Hg15 mi
9:00 am61 °FPartly sunny.13 mph83%29.67 "Hg15 mi
8:26 am61 °FPartly sunny.10 mph83%29.67 "Hg15 mi
8:00 am59 °FScattered clouds.13 mph88%29.66 "Hg15 mi
7:00 am59 °FPartly sunny.10 mph94%29.65 "Hg15 mi
6:00 am59 °FPartly sunny.9 mph100%29.63 "Hg15 mi
5:21 am59 °FPassing clouds.9 mph100%29.62 "Hg15 mi
4:00 am59 °FOvercast.12 mph100%29.61 "Hg15 mi
3:24 am59 °FPassing clouds.12 mph100%29.61 "Hg15 mi
3:00 am59 °FLight rain. Mostly cloudy.12 mph100%29.60 "Hg15 mi
2:00 am59 °FPartly cloudy.9 mph94%29.60 "Hg15 mi
1:00 am59 °FPassing clouds.6 mph94%29.60 "Hg15 mi
12:47 am59 °FPassing clouds.8 mph94%29.60 "Hg15 mi
12:00 am61 °FOvercast.10 mph94%29.60 "Hg15 mi
11:26 pm
Fri, Jul 30
59 °FMostly cloudy.13 mph100%29.59 "Hg15 mi
11:00 pm59 °FMostly cloudy.10 mph100%29.58 "Hg12 mi
10:00 pm61 °FPassing clouds.14 mph94%29.55 "Hg15 mi
9:00 pm63 °FMostly cloudy.17 mph94%29.52 "Hg15 mi
8:15 pm64 °FDrizzle. Mostly cloudy.10 mph100%29.50 "Hg10 mi
8:00 pm64 °FSprinkles. Fog.13 mph100%29.49 "Hg1 mi
7:39 pm66 °FDrizzle. Fog.10 mph100%29.48 "Hg3 mi
7:00 pm66 °FPartly sunny.9 mph100%29.48 "Hg12 mi
6:20 pm66 °FLow clouds.9 mph100%29.48 "Hg12 mi
6:00 pm66 °FLow clouds.13 mph100%29.48 "Hg12 mi
5:19 pm66 °FFog.13 mph100%29.48 "Hg6 mi
5:00 pm66 °FSprinkles. Fog.10 mph100%29.48 "Hg3 mi
4:46 pm66 °FSprinkles. Fog.13 mph100%29.49 "Hg3 mi
4:20 pm64 °FSprinkles. Fog.14 mph100%29.51 "Hg1 mi
3:29 pm66 °FSprinkles. Fog.15 mph100%29.53 "Hg1 mi
3:15 pm66 °FSprinkles. Fog.12 mph94%29.54 "Hg3 mi
2:36 pm64 °FSprinkles. Fog.9 mph100%29.57 "Hg4 mi
2:16 pm63 °FSprinkles. Mostly cloudy.12 mph100%29.58 "Hg10 mi
2:00 pm63 °FSprinkles. Mostly cloudy.12 mph100%29.59 "Hg10 mi
1:38 pm61 °FSprinkles. Fog.12 mph100%29.62 "Hg4 mi
1:00 pm61 °FSprinkles. Fog.10 mph100%29.65 "Hg2 mi
Weather by CustomWeather, © 2021

See weather overview